Location: Endfield
(51.6667°N, 0.0667°W)
Time: 03:25:11
(UTC+00:00)

Cosmos 1726 - Pass Details

Date: 19 May 2024
Orbit: 381 x 390 km, 82.5° (Epoch: 17 June)

Event Time Altitude Azimuth Distance (km) Brightness Sun altitude
Rises 20:52:34 0° 359° (N) 2,345 6.4 -7.8°
Reaches altitude 10° 20:54:54 10° 15° (NNE) 1,475 5.0 -8.1°
Maximum altitude 20:57:31 23° 70° (ENE) 926 3.3 -8.3°
Enters shadow 20:59:51 11° 122° (ESE) 1,376 3.7 -8.6°
